• In Russia
  • List of Countries
  • For 7 days
  • Water Temperature
  • Satellite Maps
  • Weather Map
  • Weather Widgets
  • user-avatar
    Login

    Hourly Weather Hurghada

    Today, 15 August, Wednesday

    Time Temperature Precipitation Wind Pressure Humidity
    00:00 +28°C° 0 mm 3 mps 680 mmHg 27%
    01:00 +27°C° 0 mm 3 mps 680 mmHg 28%
    02:00 +26°C° 0 mm 3 mps 679 mmHg 32%
    03:00 +26°C° 0 mm 3 mps 679 mmHg 34%
    04:00 +25°C° 0 mm 3 mps 679 mmHg 36%
    05:00 +25°C° 0 mm 3 mps 679 mmHg 38%
    06:00 +26°C° 0 mm 3 mps 680 mmHg 36%
    07:00 +27°C° 0 mm 4 mps 680 mmHg 34%
    08:00 +28°C° 0 mm 4 mps 680 mmHg 31%
    09:00 +30°C° 0 mm 4 mps 680 mmHg 26%
    10:00 +32°C° 0 mm 4 mps 681 mmHg 22%
    11:00 +34°C° 0 mm 4 mps 681 mmHg 18%
    12:00 +35°C° 0 mm 4 mps 681 mmHg 17%
    13:00 +36°C° 0 mm 4 mps 681 mmHg 15%
    14:00 +36°C° 0 mm 4 mps 680 mmHg 16%
    15:00 +36°C° 0 mm 4 mps 680 mmHg 16%
    16:00 +36°C° 0 mm 4 mps 680 mmHg 17%
    17:00 +36°C° 0 mm 4 mps 680 mmHg 17%
    18:00 +34°C° 0 mm 4 mps 680 mmHg 19%
    19:00 +33°C° 0 mm 4 mps 680 mmHg 21%
    20:00 +30°C° 0 mm 3 mps 680 mmHg 23%
    21:00 +30°C° 0 mm 3 mps 680 mmHg 23%
    22:00 +29°C° 0 mm 3 mps 680 mmHg 23%
    23:00 +29°C° 0 mm 3 mps 680 mmHg 23%

    Tomorrow, 16 August, Thursday

    Time Temperature Precipitation Wind Pressure Humidity
    00:00 +28°C° 0 mm 2 mps 680 mmHg 24%
    01:00 +27°C° 0 mm 2 mps 680 mmHg 25%
    02:00 +27°C° 0 mm 2 mps 680 mmHg 27%
    03:00 +26°C° 0 mm 2 mps 680 mmHg 29%
    04:00 +26°C° 0 mm 2 mps 679 mmHg 31%
    05:00 +25°C° 0 mm 2 mps 679 mmHg 33%
    06:00 +27°C° 0 mm 3 mps 680 mmHg 31%
    07:00 +28°C° 0 mm 3 mps 680 mmHg 29%
    08:00 +30°C° 0 mm 3 mps 681 mmHg 27%
    09:00 +31°C° 0 mm 3 mps 681 mmHg 24%
    10:00 +34°C° 0 mm 3 mps 681 mmHg 21%
    11:00 +35°C° 0 mm 3 mps 682 mmHg 18%
    12:00 +36°C° 0 mm 3 mps 682 mmHg 17%
    13:00 +37°C° 0 mm 3 mps 681 mmHg 16%
    14:00 +38°C° 0 mm 3 mps 681 mmHg 15%
    15:00 +37°C° 0 mm 3 mps 681 mmHg 15%
    16:00 +37°C° 0 mm 3 mps 681 mmHg 16%
    17:00 +37°C° 0 mm 3 mps 681 mmHg 16%
    18:00 +35°C° 0 mm 3 mps 681 mmHg 19%
    19:00 +34°C° 0 mm 3 mps 681 mmHg 21%
    20:00 +31°C° 0 mm 3 mps 681 mmHg 24%
    21:00 +31°C° 0 mm 3 mps 681 mmHg 23%
    22:00 +30°C° 0 mm 2 mps 681 mmHg 23%
    23:00 +30°C° 0 mm 2 mps 681 mmHg 23%

    Day after tomorrow, 17 August, Friday

    Time Temperature Precipitation Wind Pressure Humidity
    00:00 +29°C° 0 mm 2 mps 681 mmHg 24%
    01:00 +29°C° 0 mm 2 mps 680 mmHg 24%
    02:00 +28°C° 0 mm 2 mps 680 mmHg 24%
    03:00 +28°C° 0 mm 2 mps 680 mmHg 27%
    04:00 +27°C° 0 mm 2 mps 680 mmHg 30%
    05:00 +26°C° 0 mm 3 mps 680 mmHg 33%
    06:00 +28°C° 0 mm 3 mps 681 mmHg 31%
    07:00 +29°C° 0 mm 3 mps 681 mmHg 29%
    08:00 +32°C° 0 mm 4 mps 682 mmHg 28%
    09:00 +33°C° 0 mm 4 mps 682 mmHg 25%
    10:00 +35°C° 0 mm 4 mps 682 mmHg 22%
    11:00 +36°C° 0 mm 4 mps 683 mmHg 19%
    12:00 +37°C° 0 mm 4 mps 682 mmHg 18%
    13:00 +38°C° 0 mm 4 mps 682 mmHg 16%
    14:00 +40°C° 0 mm 4 mps 682 mmHg 15%
    15:00 +38°C° 0 mm 4 mps 681 mmHg 15%
    16:00 +38°C° 0 mm 4 mps 681 mmHg 16%
    17:00 +37°C° 0 mm 4 mps 680 mmHg 16%
    18:00 +36°C° 0 mm 4 mps 681 mmHg 18%
    19:00 +35°C° 0 mm 4 mps 681 mmHg 20%
    20:00 +33°C° 0 mm 3 mps 681 mmHg 22%
    21:00 +33°C° 0 mm 3 mps 681 mmHg 22%
    22:00 +31°C° 0 mm 3 mps 681 mmHg 22%
    23:00 +31°C° 0 mm 3 mps 681 mmHg 21%

    18 August, Saturday

    Time Temperature Precipitation Wind Pressure Humidity
    00:00 +30°C° 0 mm 3 mps 680 mmHg 23%
    01:00 +30°C° 0 mm 3 mps 680 mmHg 24%
    02:00 +29°C° 0 mm 3 mps 680 mmHg 26%
    03:00 +29°C° 0 mm 3 mps 680 mmHg 27%
    04:00 +28°C° 0 mm 3 mps 680 mmHg 29%
    05:00 +27°C° 0 mm 3 mps 679 mmHg 30%
    06:00 +29°C° 0 mm 4 mps 680 mmHg 27%
    07:00 +30°C° 0 mm 4 mps 680 mmHg 24%
    08:00 +32°C° 0 mm 4 mps 681 mmHg 22%
    09:00 +34°C° 0 mm 4 mps 681 mmHg 19%
    10:00 +35°C° 0 mm 4 mps 681 mmHg 16%
    11:00 +37°C° 0 mm 4 mps 681 mmHg 14%
    12:00 +39°C° 0 mm 5 mps 681 mmHg 13%
    13:00 +40°C° 0 mm 5 mps 681 mmHg 12%
    14:00 +41°C° 0 mm 5 mps 680 mmHg 12%
    15:00 +40°C° 0 mm 5 mps 680 mmHg 12%
    16:00 +40°C° 0 mm 6 mps 680 mmHg 13%
    17:00 +39°C° 0 mm 6 mps 680 mmHg 14%
    18:00 +37°C° 0 mm 5 mps 680 mmHg 16%
    19:00 +35°C° 0 mm 4 mps 680 mmHg 18%
    20:00 +34°C° 0 mm 3 mps 680 mmHg 20%
    21:00 +33°C° 0 mm 3 mps 680 mmHg 21%
    22:00 +31°C° 0 mm 3 mps 680 mmHg 21%
    23:00 +31°C° 0 mm 3 mps 680 mmHg 21%

    19 August, Sunday

    Time Temperature Precipitation Wind Pressure Humidity
    00:00 +30°C° 0 mm 3 mps 680 mmHg 22%
    01:00 +30°C° 0 mm 3 mps 679 mmHg 24%
    02:00 +29°C° 0 mm 3 mps 679 mmHg 25%
    03:00 +29°C° 0 mm 3 mps 679 mmHg 27%
    04:00 +28°C° 0 mm 3 mps 679 mmHg 29%
    05:00 +27°C° 0 mm 3 mps 679 mmHg 32%
    06:00 +29°C° 0 mm 3 mps 679 mmHg 30%
    07:00 +30°C° 0 mm 3 mps 680 mmHg 28%
    08:00 +32°C° 0 mm 4 mps 680 mmHg 26%
    09:00 +34°C° 0 mm 4 mps 680 mmHg 23%
    10:00 +35°C° 0 mm 4 mps 681 mmHg 20%
    11:00 +37°C° 0 mm 4 mps 681 mmHg 17%
    12:00 +38°C° 0 mm 4 mps 681 mmHg 16%
    13:00 +40°C° 0 mm 5 mps 680 mmHg 15%
    14:00 +40°C° 0 mm 5 mps 680 mmHg 14%
    15:00 +40°C° 0 mm 5 mps 680 mmHg 15%
    16:00 +39°C° 0 mm 5 mps 680 mmHg 16%
    17:00 +39°C° 0 mm 5 mps 679 mmHg 17%
    18:00 +36°C° 0 mm 4 mps 680 mmHg 20%
    19:00 +35°C° 0 mm 4 mps 680 mmHg 22%
    20:00 +34°C° 0 mm 3 mps 680 mmHg 25%
    21:00 +33°C° 0 mm 3 mps 680 mmHg 25%
    22:00 +32°C° 0 mm 2 mps 680 mmHg 25%
    23:00 +31°C° 0 mm 2 mps 680 mmHg 26%

    20 August, Monday

    Time Temperature Precipitation Wind Pressure Humidity
    00:00 +31°C° 0 mm 2 mps 680 mmHg 26%
    01:00 +30°C° 0 mm 2 mps 679 mmHg 26%
    02:00 +30°C° 0 mm 2 mps 679 mmHg 27%
    03:00 +29°C° 0 mm 2 mps 679 mmHg 28%
    04:00 +29°C° 0 mm 3 mps 679 mmHg 30%
    05:00 +28°C° 0 mm 3 mps 679 mmHg 31%
    06:00 +29°C° 0 mm 3 mps 680 mmHg 29%
    07:00 +31°C° 0 mm 3 mps 680 mmHg 27%
    08:00 +33°C° 0 mm 3 mps 681 mmHg 26%
    09:00 +34°C° 0 mm 3 mps 681 mmHg 23%
    10:00 +36°C° 0 mm 4 mps 681 mmHg 20%
    11:00 +37°C° 0 mm 4 mps 681 mmHg 18%
    12:00 +38°C° 0 mm 4 mps 681 mmHg 16%
    13:00 +40°C° 0 mm 5 mps 681 mmHg 15%
    14:00 +41°C° 0 mm 5 mps 681 mmHg 14%
    15:00 +40°C° 0 mm 5 mps 681 mmHg 15%
    16:00 +40°C° 0 mm 5 mps 681 mmHg 15%
    17:00 +39°C° 0 mm 5 mps 681 mmHg 16%
    18:00 +37°C° 0 mm 4 mps 681 mmHg 18%
    19:00 +35°C° 0 mm 4 mps 681 mmHg 20%
    20:00 +34°C° 0 mm 3 mps 681 mmHg 22%
    21:00 +33°C° 0 mm 3 mps 681 mmHg 23%
    22:00 +33°C° 0 mm 3 mps 681 mmHg 24%
    23:00 +31°C° 0 mm 3 mps 681 mmHg 24%
    Show more